User: anonymous   Login
Location: Mount Kobau Star Party
(49.1167°N, 119.7333°W)
Time: 04:44:39
(UTC-08:00)
Language:

TSX-5 - Orbit

View from above orbital plane
View from above orbital plane
View from above satellite
View from above satellite

Ground track
Ground track

The orbit data is extracted from the following two-line orbital elements,

1 26374U 00030A   15063.03508976  .00011117  00000-0  98468-3 0  9997
2 26374 068.9323 272.6445 0677921 140.9249 013.9604 13.97586253738871
Epoch (UTC): 04 March 2015 00:50:31
Eccentricity: 0.0677921
inclination: 68.9323°
perigee height: 408 km
apogee height: 1396 km
right ascension of ascending node: 272.6445°
argument of perigee: 140.9249°
revolutions per day: 13.97586253
mean anomaly at epoch: 13.9604°
orbit number at epoch: 73887

The dashed part of the orbit path shows where the satellite is in the earth's shadow,  

DLR